Regional Weather Roundup
Issued by NWS Midland/Odessa, TX

Skip options and go directly to product.
Home | Oldest Version | Previous Version | Current Version | All | Text Only | Save Text | Print | Product List | Glossary Off

Skip product version selection by date and time.   

774
ASUS44 KMAF 300310
RWRMAF
MIDLAND AREA WEATHER ROUNDUP
NATIONAL WEATHER SERVICE MIDLAND TX
1000 PM CDT SAT AUG 29 2015

...IN SOUTHWEST TEXAS AND SOUTHEAST NEW MEXICO...

CITY           SKY/WX    TMP DP  RH WIND       PRES   REMARKS
ALPINE         CLEAR     71  46  41 S5        30.23R
ANDREWS        FAIR      70  59  69 S6        30.13R
ARTESIA        CLOUDY    73  68  83 CALM      30.14R
BIG SPRING     MOCLDY    74  54  50 E7        30.10R
CARLSBAD       MOCLDY    81  55  40 E9        30.11R
DRYDEN           N/A     82  59  45 NW8       30.03R
FORT STOCKTON  PTCLDY    75  53  46 E6        30.10R
GUAD PASS      CLEAR     70  53  54 NE16      30.26R
HOBBS            N/A     70  57  64 CALM      30.15S
MARFA          CLEAR     66  46  48 NE7       30.20R
MIDLAND AIRPK  MOCLDY    76  59  55 CALM      30.11R
MIDLAND INTL   PTCLDY    74  59  59 S3        30.10R
ODESSA         PTCLDY    72  57  59 E3        30.12R
PECOS          CLEAR     78  56  46 NE7       30.09R
PRESIDIO       NOT AVBL
SEMINOLE       CLEAR     69  51  52 S3        30.13R
SNYDER         CLOUDY    72  56  57 CALM      30.08R
WINK           CLEAR     75  57  53 SE5       30.08R
$$
...OTHER STATIONS IN TEXAS...

CITY           SKY/WX    TMP DP  RH WIND       PRES   REMARKS
ABILENE        CLOUDY    72  65  78 SE9       30.04F
AMARILLO       MOCLDY    69  60  73 SW7       30.15R
AUSTIN         MOCLDY    81  62  52 SE6       29.98R
BROWNSVILLE    CLEAR     81  72  74 SE7       29.96R
CORPUS CHRISTI MOCLDY    76  61  59 SE7       29.98R
DALLAS FTW     CLOUDY    83  64  52 S5        29.96R
DEL RIO        MOCLDY    88  56  33 SE7       29.95R
EL PASO        PTCLDY    85  54  34 E12       30.08R
HOUSTON INT    PTCLDY    79  65  62 S5        30.00R
LUBBOCK        MOCLDY    71  56  58 S8        30.12R
SAN ANGELO     CLOUDY    79  55  43 E9        30.05R
SAN ANTONIO    MOCLDY    83  60  45 E7        29.99R
WACO           CLOUDY    88  62  41 CALM      29.99R
WICHITA FALLS  NOT AVBL
$$
...OTHER LOCATIONS IN NEW MEXICO...

CITY           SKY/WX    TMP DP  RH WIND       PRES   REMARKS
ALAMAGORDO     PTCLDY    79  57  47 CALM      30.13R
ALBUQUERQUE    PTCLDY    77  46  33 E12       30.21R
CANNON AFB     PTCLDY    70  58  64 CALM      30.19R
CLOVIS         CLEAR     66  57  72 SW6       30.19R
HOLLOMAN AFB   PTCLDY    79  59  49 N7        30.10R
ROSWELL        PTCLDY    72  59  63 S8        30.14R
RUIDOSO        CLEAR     64  54  68 MISG      30.37R
SANTA FE       CLEAR     66  45  46 E7        30.29R
TRUTH OR CONSE MOCLDY    79  52  38 S5        30.14R
TUCUMCARI      CLEAR     71  57  61 S6        30.15R
$$

USA.gov is the U.S. government's official web portal to all federal, state and local government web resources and services.